Simultaneous Nadir Overpasses (SNOs) Predictions

Prediction of SNOs between GOES-16 and METOP-B Satellite Orbit:

Table of predicted SNOs for the next 14.0 days since TLE Epoch: 8/1/2025
Index Date Time (GOES-16) GOES-16 Lat,Lon METOP-B Lat,Lon Distance(km) Time Diff (sec)
1 08/02/2025 04:13:05 0.01,-104.72 -0.50,-107.01 260.93 80
2 08/03/2025 03:49:48 0.01,-104.72 0.64,-102.04 306.17 80
3 08/04/2025 16:11:21 -0.01,-104.75 0.42,-106.62 213.58 80
4 08/05/2025 15:48:04 -0.02,-104.75 -0.71,-101.65 353.40 80
5 08/07/2025 04:09:46 0.01,-104.71 -0.33,-106.27 177.71 80
6 08/08/2025 03:46:27 0.02,-104.71 0.75,-101.29 389.15 80
7 08/09/2025 16:08:02 -0.02,-104.74 0.24,-105.89 130.61 80
8 08/10/2025 15:44:44 -0.03,-104.74 -0.90,-100.92 436.44 80
9 08/12/2025 04:06:26 0.02,-104.71 -0.14,-105.54 94.32 80
10 08/13/2025 03:43:08 0.03,-104.71 0.94,-100.56 472.73 80
11 08/14/2025 16:04:41 -0.02,-104.74 0.09,-105.15 46.93 80
